[Date Prev][Date Next][Thread Prev][Thread Next][Date Index][Thread Index]

[jamsat-news:1467] jas2info #223


========================   最新情報   ==============================

        Last updated :Sat.28APR2001  20:40 (JST) #223
        
====================================================================
   
  1)アマチュア通信衛星情報、FOシリーズの軌道要素、テレメトリ、QSOの
   状況等をまとめてみました.
   
   FO−29の2001年4月28日(土)の19:51(JST)のパスでは
  JARLのホームページのとうりアナログ運用でした。観測したテレメトリーと
  分析結果を掲載しておきます.

AS23192C1    28Apr2001
19:51-19:59(JST)
Freq.435.800-.790MHz

HI HI AE C7 88 55 00 D4 15 97 09 5B 8E 6D 00 89 90 95 9C 86 AD A9 AC AE AE 
HI HI AE C7 88 55 00 D4 15 97 09 5B 88 92 00 89 89 94 9C 74 AD A9 AC AD AE 
HI HI AE C7 88 55 00 D4 15 97 09 5B 80 93 00 89 88 87 93 8B AC A9 AC AD AD 
HI HI AE 07 88 55 00 D4 15 97 09 5B 79 9D 00 89 86 85 90 7E AC A9 AC AD AD 
HI HI AE 07 88 55 00 D4 15 97 09 5B 72 A4 00 88 85 84 90 8B AC A9 AC AD AD 
HI HI AE 07 88 55 00 D4 15 97 09 5B 6C A7 00 88 85 84 90 8A AC A9 AD AD AD 
HI HI AE 07 88 55 00 D4 15 97 09 5B 65 A7 00 89 84 84 8F 79 AC A9 AD AD AD 
HI HI AE 07 88 55 00 D4 15 97 09 HB 60 A4 00 88 84 83 8F 91 AC A9 AD AD AD 
HI HI AE 07 88 55 00 D4 15 97 09 5B 5B 9F 00 88 84 83 8F 59 AB A9 AD AD AD
HI HI AE 07 88 55 00 D4 15 97 09 5B 59 97 00 8A 84 83 8E 85 AB A9 AD AD AD 
	
AS23173C1  27Apr2001
9:39-9:49(JST)
FREQ.435.792-.787MHz


HI HI AE C7 88 55 O0 D4 CB 67 09 7D 5C AA 72 60 93 91 B0 7A AE AC B2 B0 AD 
HI HI AE C7 88 55 00 D4 CB 67 09 7D 60 AD 73 60 93 91 B0 95 AD AC B2 B0 AD 
HI HI AE C7 88 55 00 D4 CB 67 09 7D 65 AF 71 60 93 91 B0 6B AD AC B1 B0 AD 
HI HI AE C7 88 55 00 D4 CB 67 09 7D 6B B2 6A 60 93 91 B0 72 AD AC B1 B0 AD 
HI HI AE C7 88 55 00 D4 CB 67 09 7D 72 B4 68 60 93 91 B0 9A AD AC B1 B0 AD 
HI HI AE C7 88 55 00 D4 CB 67 09 7D 79 B6 64 60 93 91 B0 71 AD AC B1 B0 AD 
HI HI AE C7 88 55 00 D4 CB 67 09 7D 80 B7 5D 60 93 91 B0 A1 AD AC B1 B0 AD 
HI HI AE C7 88 55 00 D4 CB 67 09 7D 87 B7 5E 60 93 91 B0 6A AD AB B1 AF AD 
HI HI AE C7 88 55 00 D4 CB 67 09 7D 8E B6 5E 61 93 91 B0 5B AC AB B1 AF AD 
HI HI AE C7 88 55 00 D4 CB 67 09 7D 98 
 
 ------------------------ FO-29の軌道要素 ------------------------------        
 
  ■ 軌道要素1:「jamsat−keps:1094」より         
          SB KEPS @ AMSAT  $ORB01109.N
          2Line Orbital Elements 01109.AMSAT

HR AMSAT ORBITAL ELEMENTS FOR AMATEUR SATELLITES IN NASA FORMAT
FROM WA5QGD FORT WORTH,TX April 19, 2001
SEND SUBSCRIBE/UNSUBSCRIBE TO majordomo@amsat.org ONLY
BID: ORB01109.N

 DECODE 2-LINE ELSETS WITH THE FOLLOWING KEY:
 1 AAAAAU 00  0  0 BBBBB.BBBBBBBB  .CCCCCCCC  00000-0  00000-0 0  DDDZ
 2 AAAAA EEE.EEEE FFF.FFFF GGGGGGG HHH.HHHH III.IIII JJ.JJJJJJJJKKKKKZ
 KEY: A-CATALOGNUM B-EPOCHTIME C-DECAY D-ELSETNUM E-INCLINATION F-RAAN
 G-ECCENTRICITY H-ARGPERIGEE I-MNANOM J-MNMOTION K-ORBITNUM Z-CHECKSUM

FO-29
1 24278U 96046B   01109.17875802 -.00000078  00000-0 -45349-4 0  4077
2 24278  98.5540 342.3897 0351529 154.6333 207.2533 13.52767990230660

 ■ 軌道要素2:「jamsat−keps:1095」より                     

        SB KEPS @ AMSAT  $ORB01109.O
        Orbital Elements  01109.OSCAR

HR AMSAT ORBITAL ELEMENTS FOR OSCAR SATELLITES
FROM WA5QGD FORT WORTH,TX April 19, 2001
SEND SUBSCRIBE/UNSUBSCRIBE TO majordomo@amsat.org ONLY
BID: ORB01109.O
TO ALL RADIO AMATEURS BT
 
Satellite: FO-29
Catalog number: 24278
Epoch time:      01109.17875802
Element set:     407
Inclination:       98.5540 deg
RA of node:       342.3897 deg
Eccentricity:    0.0351529
Arg of perigee:   154.6333 deg
Mean anomaly:     207.2533 deg
Mean motion:   13.52767990 rev/day
Decay rate:       -7.8e-07 rev/day^2
Epoch rev:           23066
Checksum:              326

-------------------  FO-29(JAS-2)のテレメトリに関する情報  ---------------------- 
 
2)上記テレメトリー4月28日(土)のテレメトリ最終行を分析しておきます.

AS23192C1    28Apr2001
19:51-19:59(JST)
Freq.435.800-.790MHz

HI HI AE 07 88 55 00 D4 15 97 09 5B 59 97 00 8A 84 83 8E 85 AB A9 AD AD AD 

テレメトリ   内 容       換算算値 単 位  
3C	磁気センサーZ軸=	43627.4	[nT]
3D	磁気センサX軸	=	74019.6	[nT]
4A	太陽電池発生電流=	  0.0	[mA]
4B	B充放電電流	= 	 704.8	[mA]
4C	B端子電圧	=	  14.2	[V]
4D	B中間端子電圧	=	    6.3	[V]
5A	バス電圧	=	   13.9	[V]
5B	JTA送信電力	= 	  766.4	[mW]
5C 	構体温度1	=	   15.5	[℃]
5D	構体温度2	=	   16.2	[℃]
6A	構体温度3	=	   14.7	[℃]
6B	構体温度4	=	   14.7	[℃]
6C	Bセル温度	=	   14.7	[℃]
   	
 ===========================  FO-29(ふじ3号)のQSO情報等 ======================
   
 3)[jamsat-bb:

 ===============================================================================
   4)JARL のホームページに運用予定が記載されていましたのでご紹介します.
       ( http://www.jarl.or.jp/Japanese/3_Fuji/new/uy.htm )

        ■ ふじ3号/FOー29/JAS-2 ■  
   
     *** 運用予定について ***

     4月2日 〜 7月2日 アナログ系運用

  *なお,運用予定は都合により変更することがありますので予めご了承願います。

 照会先 : lab@jarl.or.jp

 最新の情報はテレホンサービス(03−3942−1000)をお聞きください。  
 以後の運用につきましては平成13年7月上旬にお知らせ致します。    
    
-----------------------    FO−20(JAS-1b)道要素   -------------------------
  5)
  ■ 軌道要素1 :出典はFO-29「ふじ3号」に同じ.
  
FO-20
1 20480U 90013C   01109.23246798 -.00000019  00000-0  22019-4 0  3059
2 20480  99.0657 188.6670 0540931  82.6406 283.5809 12.83292140524532
 
  ■ 軌道要素2 :出典はFO−29「ふじ3号」に同じ.
               
Satellite: FO-20
Catalog number: 20480
Epoch time:      01109.23246798
Element set:     305
Inclination:       99.0657 deg
RA of node:       188.6670 deg
Eccentricity:    0.0540931
Arg of perigee:    82.6406 deg
Mean anomaly:     283.5809 deg
Mean motion:   12.83292140 rev/day
Decay rate:       -1.9e-07 rev/day^2
Epoch rev:           52453
Checksum:              304
 
 --------------------------------------------------------------------------------
 
         ■ ふじ2号/FO−20/JAS-1b ■      
            
          「ふじ2号」 現況                                                                                  
             
   JAS-1b(ふじ2号)のCWテレメトリ信号に,1997年10月12日12時(JST)の
 日本上空通過時,3桁の数字が繰り返されるはずが3個の長音の繰り返しとなっているという
 異常が発見されました。この不具合は次の通過時からは回復していましたが13日15時20分の
 通過時に再び観測されました。現在はA0の送信が続いています。衛星のアナログ系中継モード
 動作は異常が無く,正常時のテレメトリ内容からは衛星の動作に異常は認められません。従って,
 直ちに衛星のミッションに影響することは無いと予想されますので,当面はアナログ系中継
 モードを継続します。衛星は既に打ち上げてから7年8ヶ月を経ておりますので,今後は監視を
 強化する予定です。アマチュア各位のレポートをお待ちします。
 -------------------------------------------------------------------------------- 
  1997年10月14日 00時35分 確認のテレメトリ音 151 KB (A0) 
  1997年10月14日 11時10分 確認のテレメトリ音 216 KB (異常キーイング) 

  以上 JARLのホ−ムページの http://www.jarl.or.jp/Japanese/3_Fuji/new/fuji.htm

===================== FO-20 ふじ2号 のテレメトリ観測結果 ====================

   12月22日(金)の12:21(JST)のパスの観測結果では以前観測した
 単一周波数のドップラー効果で周波数がずれていくのみの状態に戻っておりました。
                                         
   =============   JAS-2 (ふじ3号)と現在までの情報   ===========
  
  A.電話によるふじ3号の運用情報
      社団法人日本アマチュア連盟によるサービス
           TEL .   03− 3942 − 1000
  B.アマチュア無線FAXサービス
      JARLによるふじ3号の軌道情報(オービットカレンダー)
         FAX No.  03− 3233 −0055
  C.WWWブラウザで情報を簡単に見れる人のためにJAS−2
     ふじ3号の衛星としての運用されるまでの名前)の概要、打ち上げ
     までの状況、運用中における状況を説明したホームページを紹介し
     ておきます.
     社団法人日本アマチュア無線連盟(JARL)のホームページ

          http://www.jarl.or.jp/Japanese/3_Fuji/jasmenu.htm
 
     宇宙開発事業団(NASDA)ホームページ 
          http://www.nasda.go.jp/
         打上げ衛星 :地球観測プラットフォーム技術衛星(ADEOS) 
                       アマチュア衛星3号(JAS-2)
          http://yyy.tksc.nasda.go.jp/Home/Press/Press-j/jas-2_j.html        

  D.JAMSATによる軌道情報の活用
        JAMSATのホームページまたはjamsat−kepsの軌道要素より
      衛星の軌道情報を得る.
     JAMSATホームページ
               URL    http://www.jamsat.or.jp
       上記ホームページでは各地で行われるアマチュア通信衛星に関する
      ミューティングのお知らせや世界のアマチュア衛星に関する情報が
      満載されています.
 ========================================================================  
     JAMSATのメンバーのご協力によりJH6MME(高山 秀造)が
    執筆・編集を担当しております.ご指摘の意見、疑問やこのようにしたら
    というアイデアがありましたら小さなことでもかまいませんので気軽に下
    記アドレスまでご連絡ください.jamsat−newsからjas2
    infoへの転載をJH4PHW局坂井さんに担当して頂いております.  
                  E-mail : jh6mme@jamsat.or.jp : jh4phw@jamsat.or.jp
 ===============================   END  ===============================